MDT,Max TemperatureF,Mean TemperatureF,Min TemperatureF,Max Dew PointF,MeanDew PointF,Min DewpointF,Max Humidity, Mean Humidity, Min Humidity, Max Sea Level PressureIn, Mean Sea Level PressureIn, Min Sea Level PressureIn, Max VisibilityMiles, Mean VisibilityMiles, Min VisibilityMiles, Max Wind SpeedMPH, Mean Wind SpeedMPH, Max Gust SpeedMPH,PrecipitationIn, CloudCover, Events, WindDirDegrees
2013-6-1,63,52,40,34,32,30,79,56,33,30.29,30.10,30.00,10,10,10,30,15,38,0.00,6,,334
2013-6-2,79,58,36,34,28,20,75,43,11,30.04,29.83,29.65,10,10,10,25,12,31,0.00,0,,193
2013-6-3,77,59,40,32,24,12,54,33,11,29.81,29.63,29.55,10,10,10,36,17,44,0.00,0,,261
2013-6-4,74,52,30,40,28,17,82,49,15,30.21,29.93,29.81,10,10,10,30,10,35,0.09,3,Rain-Thunderstorm,80
2013-6-5,67,54,41,41,35,20,89,54,18,30.24,30.01,29.91,10,10,10,23,11,28,0.00,4,,106
2013-6-6,73,60,47,39,32,26,100,60,19,30.21,30.07,29.93,10,10,7,23,10,26,0.00,0,,81
2013-6-7,77,61,44,38,34,28,71,45,18,29.94,29.80,29.59,10,10,10,23,8,32,T,3,,266
2013-6-8,73,61,49,45,33,22,77,47,16,30.06,29.75,29.55,10,10,10,31,15,40,0.00,2,,330
2013-6-9,84,61,37,37,31,25,82,47,12,29.91,29.82,29.72,10,10,10,26,11,32,0.00,0,,243
2013-6-10,90,70,49,37,31,26,50,31,11,30.07,29.77,29.65,10,10,10,31,12,43,T,0,Thunderstorm,239
2013-6-11,86,67,48,33,23,14,50,29,7,29.81,29.71,29.65,10,10,10,36,17,52,0.00,0,,224
2013-6-12,86,66,45,48,30,19,60,35,9,30.19,29.90,29.82,10,10,10,33,14,40,0.00,0,,169
2013-6-13,84,69,53,50,39,25,83,48,12,29.87,29.78,29.69,10,10,10,35,17,43,0.00,0,,185
2013-6-14,82,63,44,43,29,7,71,39,6,30.18,29.83,29.67,10,10,10,33,12,44,T,1,Rain-Thunderstorm,203
2013-6-15,78,59,39,48,34,20,79,46,12,29.91,29.86,29.83,10,10,10,22,9,31,0.00,0,,173
2013-6-16,78,60,41,48,32,15,96,53,9,30.25,29.96,29.86,10,10,10,40,11,48,T,1,Thunderstorm,214
2013-6-17,75,58,41,48,40,34,77,50,23,30.25,30.00,29.90,10,10,5,24,10,29,0.09,1,Rain-Thunderstorm,144
2013-6-18,80,65,49,48,40,30,93,56,19,30.10,29.89,29.72,10,10,8,28,14,41,T,2,Rain-Thunderstorm,127
2013-6-19,86,67,47,45,27,11,93,50,6,30.07,29.63,29.52,10,10,10,31,17,40,0.00,0,,194
2013-6-20,84,61,38,44,24,11,57,34,10,30.02,29.74,29.63,10,10,10,25,9,46,0.00,0,,92
2013-6-21,83,62,41,47,27,11,82,45,7,30.05,29.72,29.67,10,10,10,30,13,39,0.00,0,,225
2013-6-22,81,64,46,46,32,18,71,41,10,30.00,29.74,29.62,10,10,10,33,16,47,T,0,Thunderstorm,199
2013-6-23,81,59,36,44,29,16,86,48,10,29.99,29.77,29.68,10,10,10,25,11,35,0.00,0,,187
2013-6-24,83,67,50,43,28,15,71,40,8,29.98,29.66,29.57,10,10,10,28,14,37,0.00,0,,205
2013-6-25,77,63,48,36,32,28,54,37,20,30.17,29.77,29.63,10,10,10,31,13,40,0.00,2,,257
2013-6-26,88,67,45,36,32,26,56,35,13,29.96,29.91,29.87,10,10,10,22,10,28,0.00,1,,223
2013-6-27,90,69,48,42,32,22,50,30,9,30.06,30.02,29.96,10,10,10,28,10,37,0.00,0,,303
2013-6-28,90,71,52,51,41,31,65,39,12,30.35,30.04,29.99,10,10,10,23,11,47,0.00,0,,61
2013-6-29,87,71,54,50,44,35,77,48,18,30.35,30.00,29.93,10,10,10,23,9,30,0.13,1,Thunderstorm,108
2013-6-30,80,67,53,57,51,44,93,62,30,30.39,30.11,29.95,10,9,2,23,7,28,0.13,4,Rain-Thunderstorm,109